Погода в Большой Каменке

Россия / Самарская область     53°39′57″N   50°30′45″E
темп.,
°C
ветер,
м/с
пор.,
м/с
влажн.,
%
обл.,
%
осадки,
мм/ч
давл.,
гПа
погр.,
м
9 мая, вс
вс901:00+13юв336176 0.0 101425
04:00+12юв3364100 0.0 101429
07:00+14юв37645 0.0 1014202
10:00+20ююв7104864 0.0 1014864
13:00+22ю78395 0.0 10131913
16:00+23ю5638100 0.0 10132284
19:00+20юв335485 0.0 101348
22:00+18юв61252100 0.0 1014315
10 мая, пн
пн1001:00+16юв395898 0.0 1014167
04:00+14юв366151 0.0 1016111
07:00+15вюв3962100 0.0 1017250
10:00+20юв5848100 0.0 1017528
13:00+23вюв5738100 0.0 10181843
16:00+23в663697 0.0 10182246
19:00+20всв4854100 0.0 1019181
22:00+16в4862100 0.0 1021121
11 мая, вт
вт1101:00+15всв376391 0.0 1021114
04:00+15в4964100 0.0 1022198
07:00+16вюв41066100 0.0 1024299
10:00+20вюв5749100 0.0 1025607
13:00+22вюв464299 0.0 10261176
16:00+23вюв6836100 0.0 10252123
19:00+20вюв375337 0.0 1026153
22:00+16в345979 0.0 102745
12 мая, ср
ср1201:00+15в336274 0.0 102737
04:00+14в226877 0.0 102719
07:00+16вюв376865 0.0 1028196
10:00+21вюв574987 0.0 1028913
13:00+23вюв57385 0.0 10282092
16:00+24вюв6735100 0.0 10282214
19:00+20вюв4852100 0.0 1028180
22:00+16вюв3655100 0.0 102886
13 мая, чт
чт1301:00+15вюв3655100 0.0 1028108
04:00+13в3758100 0.0 1028117
07:00+15вюв396065 0.0 1029239
10:00+21юв574344 0.0 1028709
13:00+24юв563435 0.0 10281573
16:00+25юв563153 0.0 10271785
19:00+22юв334835 0.0 102754
22:00+17вюв225357 0.0 102713